Time,TemperatureF,DewpointF,PressureIn,WindDirection,WindDirectionDegrees,WindSpeedMPH,WindSpeedGustMPH,Humidity,HourlyPrecipIn,Conditions,Clouds,dailyrainin,SoftwareType,DateUTC
2013-02-23 00:04:00,71.6,69.2,30.03,South,170,5.0,6.0,92,0.00,CLR,CLR,0.00,WeatherDisplay:10.37,2013-02-23 05:04:00,
2013-02-23 00:09:00,71.4,69.0,30.03,SSE,166,3.0,6.0,92,0.00,CLR,CLR,0.00,WeatherDisplay:10.37,2013-02-23 05:09:00,
2013-02-23 00:14:00,71.2,68.8,30.03,SSE,165,2.0,5.0,92,0.00,CLR,CLR,0.00,WeatherDisplay:10.37,2013-02-23 05:14:00,
2013-02-23 00:19:00,71.1,68.7,30.03,South,174,3.0,5.0,92,0.00,CLR,CLR,0.00,WeatherDisplay:10.37,2013-02-23 05:19:00,
2013-02-23 00:24:00,71.1,68.7,30.03,South,187,2.0,3.0,92,0.00,CLR,CLR,0.00,WeatherDisplay:10.37,2013-02-23 05:24:00,
2013-02-23 00:29:00,70.9,68.5,30.03,SSW,203,1.0,5.0,92,0.00,CLR,CLR,0.00,WeatherDisplay:10.37,2013-02-23 05:29:00,
2013-02-23 00:34:00,70.9,68.5,30.03,SSW,206,2.0,3.0,92,0.00,CLR,CLR,0.00,WeatherDisplay:10.37,2013-02-23 05:34:00,
2013-02-23 00:39:00,70.7,68.3,30.03,SSW,201,0.0,4.0,92,0.00,CLR,CLR,0.00,WeatherDisplay:10.37,2013-02-23 05:39:00,
2013-02-23 00:44:00,70.7,68.6,30.03,SW,216,1.0,3.0,93,0.00,CLR,CLR,0.00,WeatherDisplay:10.37,2013-02-23 05:44:00,
2013-02-23 00:49:00,70.5,68.4,30.02,SSW,207,1.0,3.0,93,0.00,CLR,CLR,0.00,WeatherDisplay:10.37,2013-02-23 05:49:00,
2013-02-23 00:54:00,70.5,68.4,30.02,SSE,158,1.0,3.0,93,0.00,CLR,CLR,0.00,WeatherDisplay:10.37,2013-02-23 05:54:00,
2013-02-23 00:59:00,70.5,68.4,30.02,SSE,147,0.0,3.0,93,0.00,CLR,CLR,0.00,WeatherDisplay:10.37,2013-02-23 05:59:00,
2013-02-23 01:04:00,70.5,68.4,30.02,SSE,147,0.0,3.0,93,0.00,CLR,CLR,0.00,WeatherDisplay:10.37,2013-02-23 06:04:00,
2013-02-23 01:09:00,70.5,68.4,30.02,SSE,161,2.0,3.0,93,0.00,CLR,CLR,0.00,WeatherDisplay:10.37,2013-02-23 06:09:00,
2013-02-23 01:14:00,70.5,68.4,30.02,South,170,2.0,3.0,93,0.00,CLR,CLR,0.00,WeatherDisplay:10.37,2013-02-23 06:14:00,
2013-02-23 01:20:00,70.5,68.4,30.02,SSE,168,0.0,3.0,93,0.00,CLR,CLR,0.00,WeatherDisplay:10.37,2013-02-23 06:20:00,
2013-02-23 01:29:00,70.5,68.4,30.02,South,169,2.0,3.0,93,0.00,CLR,CLR,0.00,WeatherDisplay:10.37,2013-02-23 06:29:00,
2013-02-23 01:34:00,70.5,68.4,30.02,South,171,2.0,4.0,93,0.00,CLR,CLR,0.00,WeatherDisplay:10.37,2013-02-23 06:34:00,
2013-02-23 01:39:00,70.5,68.4,30.01,South,174,3.0,5.0,93,0.00,CLR,CLR,0.00,WeatherDisplay:10.37,2013-02-23 06:39:00,
2013-02-23 01:44:00,70.5,68.4,30.01,SSE,165,2.0,4.0,93,0.00,CLR,CLR,0.00,WeatherDisplay:10.37,2013-02-23 06:44:00,
2013-02-23 01:49:00,70.5,68.4,30.01,SSE,165,2.0,4.0,93,0.00,CLR,CLR,0.00,WeatherDisplay:10.37,2013-02-23 06:49:00,
2013-02-23 01:55:00,70.5,68.4,30.01,South,177,2.0,4.0,93,0.00,CLR,CLR,0.00,WeatherDisplay:10.37,2013-02-23 06:55:00,
2013-02-23 02:05:00,70.5,68.4,30.00,SSE,166,2.0,4.0,93,0.00,CLR,CLR,0.00,WeatherDisplay:10.37,2013-02-23 07:05:00,
2013-02-23 02:14:00,70.5,68.4,30.00,South,172,1.0,2.0,93,0.00,CLR,CLR,0.00,WeatherDisplay:10.37,2013-02-23 07:14:00,
2013-02-23 02:19:00,70.5,68.4,30.00,South,172,1.0,2.0,93,0.00,CLR,CLR,0.00,WeatherDisplay:10.37,2013-02-23 07:19:00,
2013-02-23 02:24:00,70.3,68.2,30.00,SSE,167,2.0,3.0,93,0.00,CLR,CLR,0.00,WeatherDisplay:10.37,2013-02-23 07:24:00,
2013-02-23 02:29:00,70.3,68.2,30.00,South,172,0.0,2.0,93,0.00,CLR,CLR,0.00,WeatherDisplay:10.37,2013-02-23 07:29:00,
2013-02-23 02:34:00,70.3,68.5,30.00,SSW,198,1.0,3.0,94,0.00,CLR,CLR,0.00,WeatherDisplay:10.37,2013-02-23 07:34:00,
2013-02-23 02:39:00,70.3,68.5,30.00,South,177,2.0,3.0,94,0.00,CLR,CLR,0.00,WeatherDisplay:10.37,2013-02-23 07:39:00,
2013-02-23 02:44:00,70.3,68.5,30.00,SE,146,3.0,5.0,94,0.00,CLR,CLR,0.00,WeatherDisplay:10.37,2013-02-23 07:44:00,
2013-02-23 02:49:00,70.3,68.5,29.99,SSE,159,3.0,5.0,94,0.00,CLR,CLR,0.00,WeatherDisplay:10.37,2013-02-23 07:49:00,
2013-02-23 02:54:00,70.3,68.5,29.99,SSE,163,2.0,5.0,94,0.00,CLR,CLR,0.00,WeatherDisplay:10.37,2013-02-23 07:54:00,
2013-02-23 02:59:00,70.3,68.5,29.99,SSE,168,3.0,5.0,94,0.00,CLR,CLR,0.00,WeatherDisplay:10.37,2013-02-23 07:59:00,
2013-02-23 03:04:00,70.3,68.5,29.99,South,169,3.0,4.0,94,0.00,CLR,CLR,0.00,WeatherDisplay:10.37,2013-02-23 08:04:00,
2013-02-23 03:09:00,70.2,68.4,29.99,SSE,165,2.0,5.0,94,0.00,CLR,CLR,0.00,WeatherDisplay:10.37,2013-02-23 08:09:00,
2013-02-23 03:19:00,69.8,68.0,29.98,South,170,2.0,5.0,94,0.00,CLR,CLR,0.00,WeatherDisplay:10.37,2013-02-23 08:19:00,
2013-02-23 03:24:00,69.6,67.8,29.98,South,181,1.0,3.0,94,0.00,CLR,CLR,0.00,WeatherDisplay:10.37,2013-02-23 08:24:00,
2013-02-23 03:29:00,69.4,67.9,29.99,South,170,0.0,3.0,95,0.00,CLR,CLR,0.00,WeatherDisplay:10.37,2013-02-23 08:29:00,
2013-02-23 03:34:00,69.4,67.9,29.99,South,173,0.0,3.0,95,0.00,CLR,CLR,0.00,WeatherDisplay:10.37,2013-02-23 08:34:00,
2013-02-23 03:39:00,69.3,67.8,29.99,SSW,195,1.0,2.0,95,0.00,CLR,CLR,0.00,WeatherDisplay:10.37,2013-02-23 08:39:00,
2013-02-23 03:44:00,69.1,67.6,29.99,SSW,201,0.0,0.0,95,0.00,CLR,CLR,0.00,WeatherDisplay:10.37,2013-02-23 08:44:00,
2013-02-23 03:49:00,68.9,67.4,29.98,SSW,209,0.0,0.0,95,0.00,CLR,CLR,0.00,WeatherDisplay:10.37,2013-02-23 08:49:00,
2013-02-23 03:54:00,68.9,67.7,29.98,SSW,194,0.0,0.0,96,0.00,CLR,CLR,0.00,WeatherDisplay:10.37,2013-02-23 08:54:00,
2013-02-23 03:59:00,68.7,67.5,29.98,South,187,0.0,0.0,96,0.00,CLR,CLR,0.00,WeatherDisplay:10.37,2013-02-23 08:59:00,
2013-02-23 04:04:00,68.5,67.3,29.98,SSW,201,0.0,0.0,96,0.00,CLR,CLR,0.00,WeatherDisplay:10.37,2013-02-23 09:04:00,
2013-02-23 04:09:00,68.5,67.3,29.98,South,183,0.0,0.0,96,0.00,CLR,CLR,0.00,WeatherDisplay:10.37,2013-02-23 09:09:00,
2013-02-23 04:14:00,68.4,67.2,29.98,SSE,160,0.0,2.0,96,0.00,CLR,CLR,0.00,WeatherDisplay:10.37,2013-02-23 09:14:00,
2013-02-23 04:19:00,68.2,67.3,29.98,SSE,159,1.0,3.0,97,0.00,CLR,CLR,0.00,WeatherDisplay:10.37,2013-02-23 09:19:00,
2013-02-23 04:24:00,68.2,67.3,29.98,SSE,166,1.0,3.0,97,0.00,CLR,CLR,0.00,WeatherDisplay:10.37,2013-02-23 09:24:00,
2013-02-23 04:29:00,68.2,67.3,29.98,South,174,0.0,1.0,97,0.00,CLR,CLR,0.00,WeatherDisplay:10.37,2013-02-23 09:29:00,
2013-02-23 04:34:00,67.8,66.9,29.98,SW,221,0.0,0.0,97,0.00,CLR,CLR,0.00,WeatherDisplay:10.37,2013-02-23 09:34:00,
2013-02-23 04:39:00,67.6,66.7,29.98,WSW,254,0.0,0.0,97,0.00,CLR,CLR,0.00,WeatherDisplay:10.37,2013-02-23 09:39:00,
2013-02-23 04:44:00,67.4,66.5,29.98,WSW,256,0.0,0.0,97,0.00,CLR,CLR,0.00,WeatherDisplay:10.37,2013-02-23 09:44:00,
2013-02-23 04:49:00,67.1,66.2,29.98,SE,140,0.0,0.0,97,0.00,CLR,CLR,0.00,WeatherDisplay:10.37,2013-02-23 09:49:00,
2013-02-23 04:54:00,67.1,66.2,29.98,East,92,0.0,0.0,97,0.00,CLR,CLR,0.00,WeatherDisplay:10.37,2013-02-23 09:54:00,
2013-02-23 04:59:00,66.9,66.0,29.98,South,187,0.0,0.0,97,0.00,CLR,CLR,0.00,WeatherDisplay:10.37,2013-02-23 09:59:00,
2013-02-23 05:04:00,66.7,65.8,29.98,SSE,157,0.0,0.0,97,0.00,CLR,CLR,0.00,WeatherDisplay:10.37,2013-02-23 10:04:00,
2013-02-23 05:09:00,66.7,65.8,29.98,SE,137,0.0,0.0,97,0.00,CLR,CLR,0.00,WeatherDisplay:10.37,2013-02-23 10:09:00,
2013-02-23 05:14:00,66.7,65.8,29.98,SE,137,0.0,0.0,97,0.00,CLR,CLR,0.00,WeatherDisplay:10.37,2013-02-23 10:14:00,
2013-02-23 05:19:00,66.7,65.8,29.98,SSE,151,1.0,2.0,97,0.00,CLR,CLR,0.00,WeatherDisplay:10.37,2013-02-23 10:19:00,
2013-02-23 05:24:00,67.1,66.5,29.98,South,175,2.0,3.0,98,0.00,CLR,CLR,0.00,WeatherDisplay:10.37,2013-02-23 10:24:00,
2013-02-23 05:29:00,67.1,66.5,29.98,SSE,165,2.0,3.0,98,0.00,CLR,CLR,0.00,WeatherDisplay:10.37,2013-02-23 10:29:00,
2013-02-23 05:34:00,66.9,66.3,29.98,SSE,154,1.0,2.0,98,0.00,CLR,CLR,0.00,WeatherDisplay:10.37,2013-02-23 10:34:00,
2013-02-23 05:39:00,67.1,66.5,29.98,SSE,160,2.0,3.0,98,0.00,CLR,CLR,0.00,WeatherDisplay:10.37,2013-02-23 10:39:00,
2013-02-23 05:44:00,67.0,66.4,29.98,SSE,161,1.0,2.0,98,0.00,CLR,CLR,0.00,WeatherDisplay:10.37,2013-02-23 10:44:00,
2013-02-23 05:49:00,67.1,66.5,29.98,SSE,155,2.0,3.0,98,0.00,CLR,CLR,0.00,WeatherDisplay:10.37,2013-02-23 10:49:00,
2013-02-23 05:54:00,67.1,66.5,29.98,SSE,156,2.0,3.0,98,0.00,CLR,CLR,0.00,WeatherDisplay:10.37,2013-02-23 10:54:00,
2013-02-23 05:59:00,67.1,66.8,29.98,SSE,160,2.0,3.0,99,0.00,CLR,CLR,0.00,WeatherDisplay:10.37,2013-02-23 10:59:00,
2013-02-23 06:04:00,67.1,66.8,29.98,SSE,159,2.0,3.0,99,0.00,CLR,CLR,0.00,WeatherDisplay:10.37,2013-02-23 11:04:00,
2013-02-23 06:09:00,67.1,66.8,29.98,SSE,155,1.0,3.0,99,0.00,CLR,CLR,0.00,WeatherDisplay:10.37,2013-02-23 11:09:00,
2013-02-23 06:14:00,67.1,66.8,29.99,SSE,161,0.0,2.0,99,0.00,CLR,CLR,0.00,WeatherDisplay:10.37,2013-02-23 11:14:00,
2013-02-23 06:19:00,67.1,66.8,29.99,South,177,2.0,3.0,99,0.00,CLR,CLR,0.00,WeatherDisplay:10.37,2013-02-23 11:19:00,
2013-02-23 06:24:00,67.1,66.8,29.99,South,180,1.0,2.0,99,0.00,CLR,CLR,0.00,WeatherDisplay:10.37,2013-02-23 11:24:00,
2013-02-23 06:29:00,67.1,66.8,29.99,South,179,1.0,3.0,99,0.00,CLR,CLR,0.00,WeatherDisplay:10.37,2013-02-23 11:29:00,
2013-02-23 06:34:00,67.3,67.0,29.99,South,188,2.0,4.0,99,0.00,CLR,CLR,0.00,WeatherDisplay:10.37,2013-02-23 11:34:00,
2013-02-23 06:39:00,67.3,67.0,29.99,South,187,2.0,3.0,99,0.00,CLR,CLR,0.00,WeatherDisplay:10.37,2013-02-23 11:39:00,
2013-02-23 06:44:00,67.5,67.2,29.99,South,190,1.0,3.0,99,0.00,CLR,CLR,0.00,WeatherDisplay:10.37,2013-02-23 11:44:00,
2013-02-23 06:49:00,67.5,67.2,29.99,South,189,2.0,3.0,99,0.00,CLR,CLR,0.00,WeatherDisplay:10.37,2013-02-23 11:49:00,
2013-02-23 06:54:00,67.6,67.3,29.99,SSW,196,2.0,4.0,99,0.00,CLR,CLR,0.00,WeatherDisplay:10.37,2013-02-23 11:54:00,
2013-02-23 06:59:00,67.6,67.3,29.99,SW,221,2.0,4.0,99,0.00,CLR,CLR,0.00,WeatherDisplay:10.37,2013-02-23 11:59:00,
2013-02-23 07:04:00,67.8,67.5,29.99,South,185,2.0,3.0,99,0.00,CLR,CLR,0.00,WeatherDisplay:10.37,2013-02-23 12:04:00,
2013-02-23 07:09:00,68.2,67.9,29.99,South,173,5.0,6.0,99,0.00,CLR,CLR,0.00,WeatherDisplay:10.37,2013-02-23 12:09:00,
2013-02-23 07:14:00,68.2,67.9,29.99,South,178,3.0,6.0,99,0.00,CLR,CLR,0.00,WeatherDisplay:10.37,2013-02-23 12:14:00,
2013-02-23 07:19:00,68.2,67.9,29.99,South,170,3.0,6.0,99,0.00,CLR,CLR,0.00,WeatherDisplay:10.37,2013-02-23 12:19:00,
2013-02-23 07:24:00,68.2,67.9,30.00,South,177,2.0,6.0,99,0.00,CLR,CLR,0.00,WeatherDisplay:10.37,2013-02-23 12:24:00,
2013-02-23 07:29:00,68.4,68.1,30.00,South,173,2.0,5.0,99,0.00,CLR,CLR,0.00,WeatherDisplay:10.37,2013-02-23 12:29:00,
2013-02-23 07:34:00,68.5,68.2,30.00,SSE,163,2.0,6.0,99,0.00,CLR,CLR,0.00,WeatherDisplay:10.37,2013-02-23 12:34:00,
2013-02-23 07:39:00,68.7,68.4,30.00,SSE,163,5.0,6.0,99,0.00,CLR,CLR,0.00,WeatherDisplay:10.37,2013-02-23 12:39:00,
2013-02-23 07:44:00,68.7,68.5,30.00,SSE,168,2.0,6.0,99,0.00,CLR,CLR,0.00,WeatherDisplay:10.37,2013-02-23 12:44:00,
2013-02-23 07:49:00,69.1,68.8,30.00,South,182,2.0,6.0,99,0.00,CLR,CLR,0.00,WeatherDisplay:10.37,2013-02-23 12:49:00,
2013-02-23 07:54:00,69.3,69.0,30.00,SSW,194,5.0,6.0,99,0.00,CLR,CLR,0.00,WeatherDisplay:10.37,2013-02-23 12:54:00,
2013-02-23 07:59:00,69.3,69.0,30.00,SSW,197,3.0,7.0,99,0.00,CLR,CLR,0.00,WeatherDisplay:10.37,2013-02-23 12:59:00,
2013-02-23 08:04:00,69.5,68.9,30.00,SSW,204,3.0,6.0,98,0.00,CLR,CLR,0.00,WeatherDisplay:10.37,2013-02-23 13:04:00,
2013-02-23 08:09:00,69.6,69.0,30.00,SSW,196,3.0,7.0,98,0.00,CLR,CLR,0.00,WeatherDisplay:10.37,2013-02-23 13:09:00,
2013-02-23 08:14:00,70.0,69.4,30.01,South,181,5.0,6.0,98,0.00,CLR,CLR,0.00,WeatherDisplay:10.37,2013-02-23 13:14:00,
2013-02-23 08:19:00,70.3,69.4,30.01,SSW,193,3.0,6.0,97,0.00,CLR,CLR,0.00,WeatherDisplay:10.37,2013-02-23 13:19:00,
2013-02-23 08:24:00,70.9,69.7,30.01,SSW,204,3.0,6.0,96,0.00,CLR,CLR,0.00,WeatherDisplay:10.37,2013-02-23 13:24:00,
2013-02-23 08:29:00,71.5,70.0,30.01,SSW,207,3.0,6.0,95,0.00,CLR,CLR,0.00,WeatherDisplay:10.37,2013-02-23 13:29:00,
2013-02-23 08:34:00,71.8,69.7,30.01,SSW,205,6.0,7.0,93,0.00,CLR,CLR,0.00,WeatherDisplay:10.37,2013-02-23 13:34:00,
2013-02-23 08:39:00,72.2,69.7,30.01,South,178,2.0,6.0,92,0.00,CLR,CLR,0.00,WeatherDisplay:10.37,2013-02-23 13:39:00,
2013-02-23 08:44:00,72.5,69.7,30.01,South,172,3.0,6.0,91,0.00,CLR,CLR,0.00,WeatherDisplay:10.37,2013-02-23 13:44:00,
2013-02-23 08:49:00,72.7,69.9,30.01,SSW,194,3.0,6.0,91,0.00,CLR,CLR,0.00,WeatherDisplay:10.37,2013-02-23 13:49:00,
2013-02-23 08:54:00,73.2,70.1,30.01,SSW,193,6.0,8.0,90,0.00,CLR,CLR,0.00,WeatherDisplay:10.37,2013-02-23 13:54:00,
2013-02-23 08:59:00,73.2,69.4,30.01,SSW,203,7.0,9.0,88,0.00,CLR,CLR,0.00,WeatherDisplay:10.37,2013-02-23 13:59:00,
2013-02-23 09:04:00,73.0,69.2,30.01,SSW,195,6.0,7.0,88,0.00,CLR,CLR,0.00,WeatherDisplay:10.37,2013-02-23 14:04:00,
2013-02-23 09:09:00,73.1,69.3,30.01,South,186,5.0,7.0,88,0.00,CLR,CLR,0.00,WeatherDisplay:10.37,2013-02-23 14:09:00,
2013-02-23 09:14:00,73.6,69.9,30.01,SW,217,5.0,7.0,88,0.00,CLR,CLR,0.00,WeatherDisplay:10.37,2013-02-23 14:14:00,
2013-02-23 09:19:00,73.9,69.8,30.01,SW,227,6.0,9.0,87,0.00,CLR,CLR,0.00,WeatherDisplay:10.37,2013-02-23 14:19:00,
2013-02-23 09:24:00,74.5,69.7,30.01,SSW,209,5.0,8.0,85,0.00,CLR,CLR,0.00,WeatherDisplay:10.37,2013-02-23 14:24:00,
2013-02-23 09:29:00,74.7,69.8,30.01,South,187,9.0,10.0,85,0.00,CLR,CLR,0.00,WeatherDisplay:10.37,2013-02-23 14:29:00,
2013-02-23 09:34:00,75.0,69.8,30.01,SSW,194,5.0,9.0,84,0.00,CLR,CLR,0.00,WeatherDisplay:10.37,2013-02-23 14:34:00,
2013-02-23 09:39:00,75.2,69.7,30.01,South,190,7.0,9.0,83,0.00,CLR,CLR,0.00,WeatherDisplay:10.37,2013-02-23 14:39:00,
2013-02-23 09:44:00,75.6,69.7,30.01,South,177,10.0,10.0,82,0.00,CLR,CLR,0.00,WeatherDisplay:10.37,2013-02-23 14:44:00,
2013-02-23 09:49:00,76.5,69.9,30.00,SSE,168,8.0,11.0,80,0.00,CLR,CLR,0.00,WeatherDisplay:10.37,2013-02-23 14:49:00,
2013-02-23 09:54:00,76.6,69.6,30.00,SSE,164,7.0,13.0,79,0.00,CLR,CLR,0.00,WeatherDisplay:10.37,2013-02-23 14:54:00,
2013-02-23 09:59:00,77.5,70.1,30.00,SSE,167,8.0,11.0,78,0.00,CLR,CLR,0.00,WeatherDisplay:10.37,2013-02-23 14:59:00,
2013-02-23 10:04:00,78.1,70.0,30.00,South,180,7.0,10.0,76,0.00,CLR,CLR,0.00,WeatherDisplay:10.37,2013-02-23 15:04:00,
2013-02-23 10:09:00,78.4,69.8,30.00,South,177,7.0,13.0,75,0.00,CLR,CLR,0.00,WeatherDisplay:10.37,2013-02-23 15:09:00,
2013-02-23 10:19:00,78.6,69.6,30.00,South,189,8.0,12.0,74,0.00,CLR,CLR,0.00,WeatherDisplay:10.37,2013-02-23 15:19:00,
2013-02-23 10:24:00,79.1,69.7,30.00,SSW,211,5.0,11.0,73,0.00,CLR,CLR,0.00,WeatherDisplay:10.37,2013-02-23 15:24:00,
2013-02-23 10:34:00,78.9,69.5,30.00,SSW,201,6.0,12.0,73,0.00,CLR,CLR,0.00,WeatherDisplay:10.37,2013-02-23 15:34:00,
2013-02-23 10:39:00,79.2,69.4,30.00,South,189,7.0,12.0,72,0.00,CLR,CLR,0.00,WeatherDisplay:10.37,2013-02-23 15:39:00,
2013-02-23 10:44:00,79.7,69.5,30.00,South,187,6.0,9.0,71,0.00,CLR,CLR,0.00,WeatherDisplay:10.37,2013-02-23 15:44:00,
2013-02-23 10:49:00,79.9,69.7,30.00,SSW,212,8.0,10.0,71,0.00,CLR,CLR,0.00,WeatherDisplay:10.37,2013-02-23 15:49:00,
2013-02-23 10:54:00,80.3,69.6,30.00,South,191,8.0,12.0,70,0.00,CLR,CLR,0.00,WeatherDisplay:10.37,2013-02-23 15:54:00,
2013-02-23 10:59:00,80.8,69.7,30.00,South,173,9.0,12.0,69,0.00,CLR,CLR,0.00,WeatherDisplay:10.37,2013-02-23 15:59:00,
2013-02-23 11:04:00,80.8,69.3,29.99,South,182,7.0,11.0,68,0.00,CLR,CLR,0.00,WeatherDisplay:10.37,2013-02-23 16:04:00,
2013-02-23 11:09:00,81.3,69.3,29.99,SSW,193,7.0,10.0,67,0.00,CLR,CLR,0.00,WeatherDisplay:10.37,2013-02-23 16:09:00,
2013-02-23 11:14:00,81.8,69.4,29.99,SSW,198,7.0,9.0,66,0.00,CLR,CLR,0.00,WeatherDisplay:10.37,2013-02-23 16:14:00,
2013-02-23 11:19:00,82.9,69.9,29.99,SSW,206,6.0,10.0,65,0.00,CLR,CLR,0.00,WeatherDisplay:10.37,2013-02-23 16:19:00,
2013-02-23 11:24:00,82.7,69.7,29.98,SSW,209,6.0,10.0,65,0.00,CLR,CLR,0.00,WeatherDisplay:10.37,2013-02-23 16:24:00,
2013-02-23 11:29:00,83.0,70.0,29.98,SW,214,3.0,10.0,65,0.00,CLR,CLR,0.00,WeatherDisplay:10.37,2013-02-23 16:29:00,
2013-02-23 11:34:00,82.4,69.5,29.98,SSW,198,7.0,9.0,65,0.00,CLR,CLR,0.00,WeatherDisplay:10.37,2013-02-23 16:34:00,
2013-02-23 11:39:00,82.0,70.0,29.98,SSW,212,5.0,9.0,67,0.00,CLR,CLR,0.00,WeatherDisplay:10.37,2013-02-23 16:39:00,
2013-02-23 11:44:00,83.4,69.0,29.98,SW,219,6.0,13.0,62,0.00,CLR,CLR,0.00,WeatherDisplay:10.37,2013-02-23 16:44:00,
2013-02-23 11:49:00,83.2,67.9,29.98,SSW,213,8.0,11.0,60,0.00,CLR,CLR,0.00,WeatherDisplay:10.37,2013-02-23 16:49:00,
2013-02-23 11:54:00,84.7,68.8,29.98,SSW,212,7.0,9.0,59,0.00,CLR,CLR,0.00,WeatherDisplay:10.37,2013-02-23 16:54:00,
2013-02-23 11:59:00,84.4,69.0,29.98,SW,230,7.0,8.0,60,0.00,CLR,CLR,0.00,WeatherDisplay:10.37,2013-02-23 16:59:00,
2013-02-23 12:04:00,84.8,67.8,29.97,WSW,242,7.0,13.0,57,0.00,CLR,CLR,0.00,WeatherDisplay:10.37,2013-02-23 17:04:00,
2013-02-23 12:09:00,84.4,68.5,29.97,SW,228,5.0,7.0,59,0.00,CLR,CLR,0.00,WeatherDisplay:10.37,2013-02-23 17:09:00,
2013-02-23 12:14:00,84.7,68.7,29.96,SW,217,5.0,7.0,59,0.00,CLR,CLR,0.00,WeatherDisplay:10.37,2013-02-23 17:14:00,
2013-02-23 12:19:00,84.0,68.6,29.96,SW,223,5.0,7.0,60,0.00,CLR,CLR,0.00,WeatherDisplay:10.37,2013-02-23 17:19:00,
2013-02-23 12:24:00,84.7,68.3,29.96,SW,222,7.0,10.0,58,0.00,CLR,CLR,0.00,WeatherDisplay:10.37,2013-02-23 17:24:00,
2013-02-23 12:29:00,85.5,68.5,29.96,SSW,211,5.0,8.0,57,0.00,CLR,CLR,0.00,WeatherDisplay:10.37,2013-02-23 17:29:00,
2013-02-23 12:34:00,85.4,68.5,29.96,SW,224,6.0,9.0,57,0.00,CLR,CLR,0.00,WeatherDisplay:10.37,2013-02-23 17:34:00,
2013-02-23 12:39:00,85.3,67.8,29.96,South,191,5.0,10.0,56,0.00,CLR,CLR,0.00,WeatherDisplay:10.37,2013-02-23 17:39:00,
2013-02-23 12:44:00,84.6,67.7,29.96,South,180,5.0,6.0,57,0.00,CLR,CLR,0.00,WeatherDisplay:10.37,2013-02-23 17:44:00,
2013-02-23 12:49:00,84.7,67.3,29.96,SSW,208,6.0,8.0,56,0.00,CLR,CLR,0.00,WeatherDisplay:10.37,2013-02-23 17:49:00,
2013-02-23 12:54:00,85.4,67.4,29.96,WSW,251,6.0,8.0,55,0.00,CLR,CLR,0.00,WeatherDisplay:10.37,2013-02-23 17:54:00,
2013-02-23 12:59:00,84.5,67.1,29.95,West,263,3.0,9.0,56,0.00,CLR,CLR,0.00,WeatherDisplay:10.37,2013-02-23 17:59:00,
2013-02-23 13:04:00,85.5,67.0,29.95,SW,221,7.0,8.0,54,0.00,CLR,CLR,0.00,WeatherDisplay:10.37,2013-02-23 18:04:00,
2013-02-23 13:09:00,86.4,67.8,29.95,SW,215,3.0,6.0,54,0.00,CLR,CLR,0.00,WeatherDisplay:10.37,2013-02-23 18:09:00,
2013-02-23 13:14:00,85.7,67.7,29.94,SW,219,5.0,10.0,55,0.00,CLR,CLR,0.00,WeatherDisplay:10.37,2013-02-23 18:14:00,
2013-02-23 13:19:00,85.2,66.7,29.94,SW,228,3.0,7.0,54,0.00,CLR,CLR,0.00,WeatherDisplay:10.37,2013-02-23 18:19:00,
2013-02-23 13:24:00,85.7,67.1,29.94,SW,219,5.0,8.0,54,0.00,CLR,CLR,0.00,WeatherDisplay:10.37,2013-02-23 18:24:00,
2013-02-23 13:29:00,86.1,65.9,29.93,SW,226,6.0,9.0,51,0.00,CLR,CLR,0.00,WeatherDisplay:10.37,2013-02-23 18:29:00,
2013-02-23 13:34:00,86.8,67.6,29.93,SSW,200,6.0,11.0,53,0.00,CLR,CLR,0.00,WeatherDisplay:10.37,2013-02-23 18:34:00,
2013-02-23 13:39:00,87.3,68.1,29.93,SW,223,5.0,10.0,53,0.00,CLR,CLR,0.00,WeatherDisplay:10.37,2013-02-23 18:39:00,
2013-02-23 13:44:00,86.9,66.6,29.93,West,260,6.0,12.0,51,0.00,CLR,CLR,0.00,WeatherDisplay:10.37,2013-02-23 18:44:00,
2013-02-23 13:49:00,87.1,67.3,29.92,West,261,5.0,6.0,52,0.00,CLR,CLR,0.00,WeatherDisplay:10.37,2013-02-23 18:49:00,
2013-02-23 13:54:00,87.1,67.3,29.92,WSW,239,3.0,4.0,52,0.00,CLR,CLR,0.00,WeatherDisplay:10.37,2013-02-23 18:54:00,
2013-02-23 13:59:00,86.1,65.3,29.92,SSW,208,3.0,8.0,50,0.00,CLR,CLR,0.00,WeatherDisplay:10.37,2013-02-23 18:59:00,
2013-02-23 14:04:00,87.0,66.1,29.92,SW,228,5.0,7.0,50,0.00,CLR,CLR,0.00,WeatherDisplay:10.37,2013-02-23 19:04:00,
2013-02-23 14:09:00,86.7,65.3,29.92,WSW,257,7.0,9.0,49,0.00,CLR,CLR,0.00,WeatherDisplay:10.37,2013-02-23 19:09:00,
2013-02-23 14:14:00,87.1,65.0,29.92,WSW,242,6.0,11.0,48,0.00,CLR,CLR,0.00,WeatherDisplay:10.37,2013-02-23 19:14:00,
2013-02-23 14:19:00,87.1,64.5,29.92,WSW,243,6.0,10.0,47,0.00,CLR,CLR,0.00,WeatherDisplay:10.37,2013-02-23 19:19:00,
2013-02-23 14:24:00,87.0,64.3,29.91,SW,220,7.0,7.0,47,0.00,CLR,CLR,0.00,WeatherDisplay:10.37,2013-02-23 19:24:00,
2013-02-23 14:29:00,87.3,65.2,29.91,SSW,212,5.0,8.0,48,0.00,CLR,CLR,0.00,WeatherDisplay:10.37,2013-02-23 19:29:00,
2013-02-23 14:34:00,87.6,64.9,29.91,SW,232,6.0,9.0,47,0.00,CLR,CLR,0.00,WeatherDisplay:10.37,2013-02-23 19:34:00,
2013-02-23 14:39:00,86.5,63.9,29.90,WSW,245,5.0,8.0,47,0.00,CLR,CLR,0.00,WeatherDisplay:10.37,2013-02-23 19:39:00,
2013-02-23 14:44:00,87.3,64.0,29.90,SW,227,5.0,8.0,46,0.00,CLR,CLR,0.00,WeatherDisplay:10.37,2013-02-23 19:44:00,
2013-02-23 14:49:00,87.3,64.6,29.90,SSW,213,5.0,7.0,47,0.00,CLR,CLR,0.00,WeatherDisplay:10.37,2013-02-23 19:49:00,
2013-02-23 14:54:00,87.3,64.0,29.90,SW,224,5.0,7.0,46,0.00,CLR,CLR,0.00,WeatherDisplay:10.37,2013-02-23 19:54:00,
2013-02-23 14:59:00,88.3,64.3,29.90,WSW,250,5.0,6.0,45,0.00,CLR,CLR,0.00,WeatherDisplay:10.37,2013-02-23 19:59:00,
2013-02-23 15:04:00,88.2,64.2,29.89,SW,236,6.0,8.0,45,0.00,CLR,CLR,0.00,WeatherDisplay:10.37,2013-02-23 20:04:00,
2013-02-23 15:09:00,87.5,64.2,29.89,WSW,245,5.0,7.0,46,0.00,CLR,CLR,0.00,WeatherDisplay:10.37,2013-02-23 20:09:00,
2013-02-23 15:14:00,87.2,64.5,29.89,WSW,249,3.0,8.0,47,0.00,CLR,CLR,0.00,WeatherDisplay:10.37,2013-02-23 20:14:00,
2013-02-23 15:19:00,87.5,64.2,29.89,SW,225,3.0,7.0,46,0.00,CLR,CLR,0.00,WeatherDisplay:10.37,2013-02-23 20:19:00,
2013-02-23 15:24:00,87.8,64.4,29.89,SW,219,3.0,6.0,46,0.00,CLR,CLR,0.00,WeatherDisplay:10.37,2013-02-23 20:24:00,
2013-02-23 15:29:00,87.8,63.8,29.89,WSW,239,3.0,7.0,45,0.00,CLR,CLR,0.00,WeatherDisplay:10.37,2013-02-23 20:29:00,
2013-02-23 15:34:00,88.4,63.8,29.89,WSW,257,7.0,8.0,44,0.00,CLR,CLR,0.00,WeatherDisplay:10.37,2013-02-23 20:34:00,
2013-02-23 15:39:00,88.7,64.6,29.89,WSW,252,3.0,6.0,45,0.00,CLR,CLR,0.00,WeatherDisplay:10.37,2013-02-23 20:39:00,
2013-02-23 15:44:00,88.7,64.0,29.89,West,260,6.0,8.0,44,0.00,CLR,CLR,0.00,WeatherDisplay:10.37,2013-02-23 20:44:00,
2013-02-23 15:49:00,88.8,64.1,29.89,WSW,258,3.0,8.0,44,0.00,CLR,CLR,0.00,WeatherDisplay:10.37,2013-02-23 20:49:00,
2013-02-23 15:54:00,87.4,64.1,29.89,WSW,239,3.0,7.0,46,0.00,CLR,CLR,0.00,WeatherDisplay:10.37,2013-02-23 20:54:00,
2013-02-23 15:59:00,87.4,64.7,29.89,WSW,248,5.0,8.0,47,0.00,CLR,CLR,0.00,WeatherDisplay:10.37,2013-02-23 20:59:00,
2013-02-23 16:04:00,87.2,64.5,29.88,SW,236,5.0,7.0,47,0.00,CLR,CLR,0.00,WeatherDisplay:10.37,2013-02-23 21:04:00,
2013-02-23 16:09:00,87.2,64.5,29.88,WSW,248,3.0,8.0,47,0.00,CLR,CLR,0.00,WeatherDisplay:10.37,2013-02-23 21:09:00,
2013-02-23 16:14:00,87.8,64.4,29.88,WSW,237,5.0,7.0,46,0.00,CLR,CLR,0.00,WeatherDisplay:10.37,2013-02-23 21:14:00,
2013-02-23 16:24:00,86.9,64.3,29.88,SSW,204,3.0,6.0,47,0.00,CLR,CLR,0.00,WeatherDisplay:10.37,2013-02-23 21:24:00,
2013-02-23 16:34:00,86.5,64.5,29.88,WSW,243,3.0,7.0,48,0.00,CLR,CLR,0.00,WeatherDisplay:10.37,2013-02-23 21:34:00,
2013-02-23 16:39:00,87.4,64.7,29.88,SW,231,2.0,6.0,47,0.00,CLR,CLR,0.00,WeatherDisplay:10.37,2013-02-23 21:39:00,
2013-02-23 16:44:00,87.6,64.3,29.88,SW,230,3.0,6.0,46,0.00,CLR,CLR,0.00,WeatherDisplay:10.37,2013-02-23 21:44:00,
2013-02-23 16:49:00,87.4,64.7,29.88,WSW,247,5.0,5.0,47,0.00,CLR,CLR,0.00,WeatherDisplay:10.37,2013-02-23 21:49:00,
2013-02-23 16:54:00,86.4,65.0,29.88,SW,236,5.0,9.0,49,0.00,CLR,CLR,0.00,WeatherDisplay:10.37,2013-02-23 21:54:00,
2013-02-23 16:59:00,86.2,64.8,29.87,SW,232,2.0,5.0,49,0.00,CLR,CLR,0.00,WeatherDisplay:10.37,2013-02-23 21:59:00,
2013-02-23 17:04:00,86.2,65.4,29.87,SW,234,2.0,4.0,50,0.00,CLR,CLR,0.00,WeatherDisplay:10.37,2013-02-23 22:04:00,
2013-02-23 17:09:00,85.5,64.7,29.87,SW,219,3.0,7.0,50,0.00,CLR,CLR,0.00,WeatherDisplay:10.37,2013-02-23 22:09:00,
2013-02-23 17:14:00,85.3,64.5,29.87,SW,223,5.0,6.0,50,0.00,CLR,CLR,0.00,WeatherDisplay:10.37,2013-02-23 22:14:00,
2013-02-23 17:19:00,85.1,64.9,29.87,SW,221,2.0,6.0,51,0.00,CLR,CLR,0.00,WeatherDisplay:10.37,2013-02-23 22:19:00,
2013-02-23 17:24:00,84.9,65.3,29.87,SW,227,3.0,6.0,52,0.00,CLR,CLR,0.00,WeatherDisplay:10.37,2013-02-23 22:24:00,
2013-02-23 17:29:00,84.6,65.1,29.87,SSW,213,3.0,6.0,52,0.00,CLR,CLR,0.00,WeatherDisplay:10.37,2013-02-23 22:29:00,
2013-02-23 17:34:00,84.2,65.2,29.87,SSW,210,2.0,6.0,53,0.00,CLR,CLR,0.00,WeatherDisplay:10.37,2013-02-23 22:34:00,
2013-02-23 17:39:00,84.2,65.2,29.87,SW,225,3.0,5.0,53,0.00,CLR,CLR,0.00,WeatherDisplay:10.37,2013-02-23 22:39:00,
2013-02-23 17:44:00,84.2,66.3,29.87,WSW,243,2.0,5.0,55,0.00,CLR,CLR,0.00,WeatherDisplay:10.37,2013-02-23 22:44:00,
2013-02-23 17:49:00,84.1,66.2,29.87,West,272,2.0,6.0,55,0.00,CLR,CLR,0.00,WeatherDisplay:10.37,2013-02-23 22:49:00,
2013-02-23 17:54:00,83.5,66.2,29.87,SW,223,3.0,5.0,56,0.00,CLR,CLR,0.00,WeatherDisplay:10.37,2013-02-23 22:54:00,
2013-02-23 17:59:00,83.1,65.8,29.87,South,190,2.0,4.0,56,0.00,CLR,CLR,0.00,WeatherDisplay:10.37,2013-02-23 22:59:00,
2013-02-23 18:04:00,82.9,66.1,29.88,South,182,1.0,5.0,57,0.00,CLR,CLR,0.00,WeatherDisplay:10.37,2013-02-23 23:04:00,
2013-02-23 18:09:00,82.5,65.7,29.88,SSW,205,2.0,3.0,57,0.00,CLR,CLR,0.00,WeatherDisplay:10.37,2013-02-23 23:09:00,
2013-02-23 18:14:00,82.2,66.0,29.88,SW,231,1.0,3.0,58,0.00,CLR,CLR,0.00,WeatherDisplay:10.37,2013-02-23 23:14:00,
2013-02-23 18:19:00,81.7,66.0,29.88,WSW,237,2.0,3.0,59,0.00,CLR,CLR,0.00,WeatherDisplay:10.37,2013-02-23 23:19:00,
2013-02-23 18:24:00,81.4,66.1,29.88,SW,235,0.0,3.0,60,0.00,CLR,CLR,0.00,WeatherDisplay:10.37,2013-02-23 23:24:00,
2013-02-23 18:29:00,81.0,66.3,29.88,SW,232,0.0,2.0,61,0.00,CLR,CLR,0.00,WeatherDisplay:10.37,2013-02-23 23:29:00,
2013-02-23 18:34:00,80.2,66.0,29.88,SW,228,2.0,2.0,62,0.00,CLR,CLR,0.00,WeatherDisplay:10.37,2013-02-23 23:34:00,
2013-02-23 18:39:00,80.0,65.8,29.89,SW,229,0.0,2.0,62,0.00,CLR,CLR,0.00,WeatherDisplay:10.37,2013-02-23 23:39:00,
2013-02-23 18:44:00,79.3,66.1,29.89,SW,230,1.0,2.0,64,0.00,CLR,CLR,0.00,WeatherDisplay:10.37,2013-02-23 23:44:00,
2013-02-23 18:49:00,78.9,66.1,29.89,SW,226,0.0,2.0,65,0.00,CLR,CLR,0.00,WeatherDisplay:10.37,2013-02-23 23:49:00,
2013-02-23 18:54:00,78.4,66.1,29.89,SW,222,0.0,2.0,66,0.00,CLR,CLR,0.00,WeatherDisplay:10.37,2013-02-23 23:54:00,
2013-02-23 18:59:00,77.9,65.6,29.89,SW,221,1.0,2.0,66,0.00,CLR,CLR,0.00,WeatherDisplay:10.37,2013-02-23 23:59:00,
2013-02-23 19:04:00,77.8,65.9,29.90,SW,224,1.0,3.0,67,0.00,CLR,CLR,0.00,WeatherDisplay:10.37,2013-02-24 00:04:00,
2013-02-23 19:09:00,77.4,65.6,29.90,SW,230,1.0,2.0,67,0.00,CLR,CLR,0.00,WeatherDisplay:10.37,2013-02-24 00:09:00,
2013-02-23 19:14:00,77.1,65.7,29.90,SW,235,0.0,2.0,68,0.00,CLR,CLR,0.00,WeatherDisplay:10.37,2013-02-24 00:14:00,
2013-02-23 19:19:00,76.8,65.4,29.90,WSW,237,0.0,0.0,68,0.00,CLR,CLR,0.00,WeatherDisplay:10.37,2013-02-24 00:19:00,
2013-02-23 19:24:00,76.6,65.7,29.90,WSW,245,0.0,2.0,69,0.00,CLR,CLR,0.00,WeatherDisplay:10.37,2013-02-24 00:24:00,
2013-02-23 19:29:00,76.3,65.4,29.91,WSW,252,0.0,2.0,69,0.00,CLR,CLR,0.00,WeatherDisplay:10.37,2013-02-24 00:29:00,
2013-02-23 19:34:00,76.0,65.5,29.91,WSW,247,0.0,2.0,70,0.00,CLR,CLR,0.00,WeatherDisplay:10.37,2013-02-24 00:34:00,
2013-02-23 19:39:00,75.7,65.2,29.91,WSW,243,0.0,2.0,70,0.00,CLR,CLR,0.00,WeatherDisplay:10.37,2013-02-24 00:39:00,
2013-02-23 19:44:00,75.4,65.3,29.91,WSW,242,0.0,2.0,71,0.00,CLR,CLR,0.00,WeatherDisplay:10.37,2013-02-24 00:44:00,
2013-02-23 19:49:00,75.2,65.1,29.91,SW,224,1.0,2.0,71,0.00,CLR,CLR,0.00,WeatherDisplay:10.37,2013-02-24 00:49:00,
2013-02-23 19:54:00,75.0,65.4,29.91,SW,223,0.0,2.0,72,0.00,CLR,CLR,0.00,WeatherDisplay:10.37,2013-02-24 00:54:00,
2013-02-23 19:59:00,74.8,65.2,29.91,SW,227,1.0,2.0,72,0.00,CLR,CLR,0.00,WeatherDisplay:10.37,2013-02-24 00:59:00,
2013-02-23 20:04:00,74.8,65.2,29.91,SW,231,1.0,2.0,72,0.00,CLR,CLR,0.00,WeatherDisplay:10.37,2013-02-24 01:04:00,
2013-02-23 20:09:00,74.8,65.2,29.91,WSW,241,2.0,3.0,72,0.00,CLR,CLR,0.00,WeatherDisplay:10.37,2013-02-24 01:09:00,
2013-02-23 20:14:00,74.8,65.2,29.91,WSW,243,2.0,3.0,72,0.00,CLR,CLR,0.00,WeatherDisplay:10.37,2013-02-24 01:14:00,
2013-02-23 20:19:00,74.8,65.2,29.91,WSW,257,2.0,3.0,72,0.00,CLR,CLR,0.00,WeatherDisplay:10.37,2013-02-24 01:19:00,
2013-02-23 20:24:00,74.8,65.2,29.91,WSW,245,2.0,3.0,72,0.00,CLR,CLR,0.00,WeatherDisplay:10.37,2013-02-24 01:24:00,
2013-02-23 20:29:00,74.6,65.3,29.91,WSW,242,0.0,2.0,73,0.00,CLR,CLR,0.00,WeatherDisplay:10.37,2013-02-24 01:29:00,
2013-02-23 20:34:00,74.5,65.3,29.91,WSW,243,0.0,3.0,73,0.00,CLR,CLR,0.00,WeatherDisplay:10.37,2013-02-24 01:34:00,
2013-02-23 20:39:00,74.3,65.1,29.91,SW,232,2.0,3.0,73,0.00,CLR,CLR,0.00,WeatherDisplay:10.37,2013-02-24 01:39:00,
2013-02-23 20:44:00,74.1,65.3,29.91,WSW,241,2.0,5.0,74,0.00,CLR,CLR,0.00,WeatherDisplay:10.37,2013-02-24 01:44:00,
2013-02-23 20:49:00,74.1,65.3,29.92,SW,227,1.0,3.0,74,0.00,CLR,CLR,0.00,WeatherDisplay:10.37,2013-02-24 01:49:00,
2013-02-23 20:54:00,74.1,65.3,29.92,SW,224,2.0,3.0,74,0.00,CLR,CLR,0.00,WeatherDisplay:10.37,2013-02-24 01:54:00,
2013-02-23 20:59:00,74.1,65.3,29.92,SW,236,1.0,4.0,74,0.00,CLR,CLR,0.00,WeatherDisplay:10.37,2013-02-24 01:59:00,
2013-02-23 21:04:00,74.1,65.3,29.92,WSW,249,2.0,5.0,74,0.00,CLR,CLR,0.00,WeatherDisplay:10.37,2013-02-24 02:04:00,
2013-02-23 21:09:00,74.1,65.3,29.92,SW,233,3.0,4.0,74,0.00,CLR,CLR,0.00,WeatherDisplay:10.37,2013-02-24 02:09:00,
2013-02-23 21:14:00,74.1,65.3,29.92,SW,235,2.0,4.0,74,0.00,CLR,CLR,0.00,WeatherDisplay:10.37,2013-02-24 02:14:00,
2013-02-23 21:19:00,74.1,65.3,29.92,SW,234,2.0,5.0,74,0.00,CLR,CLR,0.00,WeatherDisplay:10.37,2013-02-24 02:19:00,
2013-02-23 21:24:00,74.1,65.3,29.92,WSW,241,1.0,5.0,74,0.00,CLR,CLR,0.00,WeatherDisplay:10.37,2013-02-24 02:24:00,
2013-02-23 21:29:00,73.9,65.5,29.92,WSW,241,2.0,3.0,75,0.00,CLR,CLR,0.00,WeatherDisplay:10.37,2013-02-24 02:29:00,
2013-02-23 21:34:00,73.8,65.4,29.92,WSW,245,2.0,4.0,75,0.00,CLR,CLR,0.00,WeatherDisplay:10.37,2013-02-24 02:34:00,
2013-02-23 21:39:00,73.6,65.2,29.92,WSW,258,3.0,5.0,75,0.00,CLR,CLR,0.00,WeatherDisplay:10.37,2013-02-24 02:39:00,
2013-02-23 21:44:00,73.6,65.6,29.92,WSW,239,3.0,5.0,76,0.00,CLR,CLR,0.00,WeatherDisplay:10.37,2013-02-24 02:44:00,
2013-02-23 21:49:00,73.6,65.6,29.92,SW,224,3.0,6.0,76,0.00,CLR,CLR,0.00,WeatherDisplay:10.37,2013-02-24 02:49:00,
2013-02-23 21:54:00,73.4,65.7,29.92,WSW,242,2.0,6.0,77,0.00,CLR,CLR,0.00,WeatherDisplay:10.37,2013-02-24 02:54:00,
2013-02-23 21:59:00,73.2,66.3,29.92,WSW,248,2.0,5.0,79,0.00,CLR,CLR,0.00,WeatherDisplay:10.37,2013-02-24 02:59:00,
2013-02-23 22:04:00,73.0,66.1,29.92,West,269,2.0,3.0,79,0.00,CLR,CLR,0.00,WeatherDisplay:10.37,2013-02-24 03:04:00,
2013-02-23 22:09:00,73.0,66.8,29.92,West,270,3.0,6.0,81,0.00,CLR,CLR,0.00,WeatherDisplay:10.37,2013-02-24 03:09:00,
2013-02-23 22:14:00,72.9,66.7,29.93,WSW,245,3.0,5.0,81,0.00,CLR,CLR,0.00,WeatherDisplay:10.37,2013-02-24 03:14:00,
2013-02-23 22:19:00,72.9,67.1,29.93,WSW,239,2.0,5.0,82,0.00,CLR,CLR,0.00,WeatherDisplay:10.37,2013-02-24 03:19:00,
2013-02-23 22:24:00,72.7,67.2,29.93,WSW,249,2.0,5.0,83,0.00,CLR,CLR,0.00,WeatherDisplay:10.37,2013-02-24 03:24:00,
2013-02-23 22:29:00,72.5,67.4,29.93,WSW,253,2.0,5.0,84,0.00,CLR,CLR,0.00,WeatherDisplay:10.37,2013-02-24 03:29:00,
2013-02-23 22:34:00,72.3,67.2,29.93,WSW,251,2.0,5.0,84,0.00,CLR,CLR,0.00,WeatherDisplay:10.37,2013-02-24 03:34:00,
2013-02-23 22:39:00,72.1,67.3,29.93,WSW,248,2.0,4.0,85,0.00,CLR,CLR,0.00,WeatherDisplay:10.37,2013-02-24 03:39:00,
2013-02-23 22:44:00,72.1,67.7,29.93,WSW,239,2.0,5.0,86,0.00,CLR,CLR,0.00,WeatherDisplay:10.37,2013-02-24 03:44:00,
2013-02-23 22:49:00,72.0,67.6,29.93,SW,227,2.0,3.0,86,0.00,CLR,CLR,0.00,WeatherDisplay:10.37,2013-02-24 03:49:00,
2013-02-23 22:54:00,71.8,67.7,29.93,SW,231,3.0,6.0,87,0.00,CLR,CLR,0.00,WeatherDisplay:10.37,2013-02-24 03:54:00,
2013-02-23 22:59:00,71.8,67.7,29.93,West,265,2.0,4.0,87,0.00,CLR,CLR,0.00,WeatherDisplay:10.37,2013-02-24 03:59:00,
2013-02-23 23:04:00,71.6,67.9,29.93,West,273,2.0,5.0,88,0.00,CLR,CLR,0.00,WeatherDisplay:10.37,2013-02-24 04:04:00,
2013-02-23 23:09:00,71.4,67.7,29.93,WSW,250,2.0,5.0,88,0.00,CLR,CLR,0.00,WeatherDisplay:10.37,2013-02-24 04:09:00,
2013-02-23 23:14:00,71.2,67.5,29.94,WSW,244,2.0,3.0,88,0.00,CLR,CLR,0.00,WeatherDisplay:10.37,2013-02-24 04:14:00,
2013-02-23 23:19:00,71.1,67.7,29.94,WSW,244,0.0,4.0,89,0.00,CLR,CLR,0.00,WeatherDisplay:10.37,2013-02-24 04:19:00,
2013-02-23 23:24:00,70.9,67.5,29.94,WSW,241,2.0,3.0,89,0.00,CLR,CLR,0.00,WeatherDisplay:10.37,2013-02-24 04:24:00,
2013-02-23 23:29:00,70.7,67.6,29.94,WSW,245,1.0,3.0,90,0.00,CLR,CLR,0.00,WeatherDisplay:10.37,2013-02-24 04:29:00,
2013-02-23 23:34:00,70.5,67.4,29.94,WSW,256,2.0,3.0,90,0.00,CLR,CLR,0.00,WeatherDisplay:10.37,2013-02-24 04:34:00,
2013-02-23 23:39:00,70.3,67.2,29.93,WSW,254,2.0,4.0,90,0.00,CLR,CLR,0.00,WeatherDisplay:10.37,2013-02-24 04:39:00,
2013-02-23 23:44:00,70.2,67.5,29.93,WSW,253,1.0,3.0,91,0.00,CLR,CLR,0.00,WeatherDisplay:10.37,2013-02-24 04:44:00,
2013-02-23 23:49:00,70.2,67.4,29.93,WSW,248,2.0,3.0,91,0.00,CLR,CLR,0.00,WeatherDisplay:10.37,2013-02-24 04:49:00,
2013-02-23 23:54:00,70.0,67.3,29.93,WSW,254,1.0,3.0,91,0.00,CLR,CLR,0.00,WeatherDisplay:10.37,2013-02-24 04:54:00,
2013-02-23 23:59:00,69.8,67.4,29.93,SW,230,2.0,3.0,92,0.00,CLR,CLR,0.00,WeatherDisplay:10.37,2013-02-24 04:59:00,